Tracking 19969 objects as of 12-Nov-2019
Live streaming from Space Station
objects crossing your sky now
Track the group of recently launched Starlink satellites

OPS 1427 (OV3-4)

Track OPS 1427 (OV3-4) now!
10-day predictions
OPS 1427 (OV3-4) is classified as:


NORAD ID: 2201
Int'l Code: 1966-052A
Perigee: 648.7 km
Apogee: 4,694.7 km
Inclination: 40.9 °
Period: 142.6 minutes
Semi major axis: 9042 km
RCS: 0.817 m2 (medium)
Launch date: June 10, 1966
Source: United States (US)
Launch site: WALLOPS ISLAND (WLPIS)
aabbcc
Your satellite tracking list
Your tracking list is empty




NASA's NSSDC Master Catalog

Two Line Element Set (TLE):
1  2201U 66052A   19315.81943844 -.00000177 +00000-0 -19845-3 0  9991
2  2201 040.8706 093.0096 2237168 351.0105 005.6082 10.09614767953800
Source of the keplerian elements: AFSPC